Weather History for PASI - March, 2013

Change the Weather History Date:

Saturday, March 30, 2013

  Actual Average Record
Temperature  
Mean Temperature 40 °F -  
Max Temperature 44 °F 44 °F 54 °F (1956)
Min Temperature 37 °F 34 °F 20 °F (1952)
Degree Days  
Heating Degree Days 24    
Moisture  
Dew Point 40 °F    
Average Humidity 96    
Maximum Humidity 100    
Minimum Humidity 79    
Precipitation  
Precipitation 0.79 in - - ()
Sea Level Pressure  
Sea Level Pressure 30.32 in    
Wind  
Wind Speed 8 mph (SSW)    
Max Wind Speed 16 mph    
Max Gust Speed -    
Visibility 5 miles    
Events Rain    
Averages and records for this station are not official NWS values.
T = Trace of Precipitation, MM = Missing Value Source: NWS Daily Summary

Daily Weather History Graph

Daily Weather History Graph

Search for Another Location

Airport or City:

Trip Planner

Search our weather history database for the weather conditions in past years. The results will help you decide how hot, cold, wet, or windy it might be!

Date:

Astronomy

Mar. 30, 2013 Rise Set
Actual Time 6:34 AM AKDT 7:37 PM AKDT
Civil Twilight 5:56 AM AKDT 8:16 PM AKDT
Nautical Twilight 5:08 AM AKDT 9:04 PM AKDT
Astronomical Twilight 4:15 AM AKDT 9:58 PM AKDT
Moon No Moon Rise 7:49 AM AKDT (3/30)
Length of Visible Light 14h 20m
Length of Day
13h 02m
Waning Gibbous, 85% of the Moon is Illuminated
Mar 30
Waning Gibbous
Apr 2
Last Quarter
Apr 10
New
Apr 18
First Quarter
Apr 25
Full

Hourly Weather History & Observations

Time (AKDT) Temp. Windchill Dew Point Humidity Pressure Visibility Wind Dir Wind Speed Gust Speed Precip Events Conditions
12:01 AM 41.0 °F 32.8 °F 35.6 °F 81% 30.25 in 10.0 mi ESE 16.1 mph - 0.00 in Rain Light Rain
12:36 AM 41.0 °F 33.5 °F 35.6 °F 81% 30.25 in 10.0 mi SE 13.8 mph - 0.01 in Rain Light Rain
12:53 AM 41.0 °F 34.3 °F 35.1 °F 79% 30.25 in 9.0 mi SE 11.5 mph - 0.02 in Rain Light Rain
1:53 AM 41.0 °F 34.7 °F 36.0 °F 82% 30.24 in 9.0 mi ESE 10.4 mph - 0.04 in Rain Light Rain
2:53 AM 41.0 °F 35.2 °F 37.0 °F 86% 30.24 in 8.0 mi SE 9.2 mph - 0.04 in Rain Light Rain
3:53 AM 39.9 °F 35.1 °F 37.9 °F 93% 30.24 in 6.0 mi SE 6.9 mph - 0.07 in Rain Rain
4:53 AM 39.9 °F 32.9 °F 37.0 °F 89% 30.24 in 5.0 mi ESE 11.5 mph - 0.10 in Rain Rain
5:53 AM 39.0 °F 32.8 °F 37.0 °F 93% 30.24 in 6.0 mi SE 9.2 mph - 0.12 in Rain Rain
6:53 AM 37.9 °F 31.5 °F 37.0 °F 97% 30.25 in 8.0 mi East 9.2 mph - 0.10 in Rain Light Rain
7:53 AM 37.9 °F 32.1 °F 37.0 °F 97% 30.26 in 5.0 mi East 8.1 mph - 0.09 in Rain Rain
8:53 AM 39.0 °F 33.4 °F 37.9 °F 96% 30.26 in 10.0 mi East 8.1 mph - 0.04 in Rain Light Rain
9:53 AM 41.0 °F 35.2 °F 37.9 °F 89% 30.27 in 10.0 mi ESE 9.2 mph - 0.00 in Rain Light Rain
10:53 AM 43.0 °F 38.8 °F 39.0 °F 86% 30.28 in 9.0 mi SE 6.9 mph - 0.00 in Rain Light Rain
11:53 AM 42.1 °F 38.4 °F 39.9 °F 92% 30.30 in 3.0 mi SE 5.8 mph - 0.01 in Rain Light Rain
12:53 PM 43.0 °F 41.3 °F 42.1 °F 97% 30.31 in 4.0 mi South 3.5 mph - 0.02 in Rain Light Rain
1:20 PM 42.8 °F - 42.8 °F 100% 30.31 in 2.5 mi Calm Calm - 0.01 in Rain Light Rain
1:53 PM 43.0 °F - 42.1 °F 97% 30.32 in 2.0 mi Calm Calm - 0.03 in Rain Light Rain
2:19 PM 44.6 °F - 42.8 °F 93% 30.33 in 3.0 mi Calm Calm - 0.01 in Rain Light Rain
2:44 PM 44.6 °F - 42.8 °F 93% 30.33 in 3.0 mi Calm Calm - 0.02 in Rain Light Rain
2:53 PM 44.1 °F - 44.1 °F 100% 30.33 in 3.0 mi Calm Calm - 0.02 in Rain Light Rain
2:55 PM 44.6 °F - 44.6 °F 100% 30.33 in 2.0 mi Calm Calm - 0.00 in Rain Light Rain
3:19 PM 44.6 °F - 42.8 °F 93% 30.33 in 2.0 mi Calm Calm - 0.02 in Rain Light Rain
3:23 PM 42.8 °F - 42.8 °F 100% 30.33 in 2.0 mi Calm Calm - 0.02 in Rain Light Rain
3:45 PM 42.8 °F 40.1 °F 42.8 °F 100% 30.33 in 1.5 mi SSW 4.6 mph - 0.03 in Rain Light Rain
3:53 PM 43.0 °F - 43.0 °F 100% 30.34 in 1.5 mi Calm Calm - 0.04 in Rain Light Rain
4:03 PM 42.8 °F 41.1 °F 42.8 °F 100% 30.33 in 1.5 mi South 3.5 mph - 0.01 in Rain Light Rain
4:16 PM 42.8 °F 39.3 °F 42.8 °F 100% 30.34 in 2.5 mi SSW 5.8 mph - 0.01 in Rain Light Rain
4:39 PM 42.8 °F 40.1 °F 42.8 °F 100% 30.34 in 5.0 mi SSW 4.6 mph - 0.01 in   Overcast
4:51 PM 42.8 °F 39.3 °F 42.8 °F 100% 30.34 in 2.5 mi SSW 5.8 mph - 0.01 in   Overcast
4:53 PM 43.0 °F 40.3 °F 43.0 °F 100% 30.34 in 2.5 mi SSW 4.6 mph - 0.01 in   Overcast
5:31 PM 42.8 °F 40.1 °F 42.8 °F 100% 30.34 in 2.5 mi West 4.6 mph - 0.01 in   Overcast
5:38 PM 42.8 °F 39.3 °F 42.8 °F 100% 30.34 in 3.0 mi WNW 5.8 mph - 0.01 in   Overcast
5:45 PM 42.8 °F 38.0 °F 42.8 °F 100% 30.34 in 2.0 mi WNW 8.1 mph - 0.01 in   Overcast
5:53 PM 41.0 °F 35.8 °F 41.0 °F 100% 30.35 in 3.0 mi NW 8.1 mph - 0.01 in   Overcast
6:40 PM 41.0 °F 35.8 °F 41.0 °F 100% 30.35 in 2.5 mi WNW 8.1 mph - 0.01 in Rain Light Rain
6:53 PM 41.0 °F 35.8 °F 41.0 °F 100% 30.35 in 2.5 mi WNW 8.1 mph - 0.01 in Rain Light Rain
7:00 PM 41.0 °F 35.2 °F 41.0 °F 100% 30.35 in 4.0 mi WNW 9.2 mph - 0.00 in   Overcast
7:12 PM 41.0 °F 35.2 °F 41.0 °F 100% 30.35 in 6.0 mi WNW 9.2 mph - 0.00 in   Overcast
7:53 PM 39.9 °F 33.4 °F 39.9 °F 100% 30.36 in 5.0 mi NW 10.4 mph - 0.02 in Rain Light Rain
8:07 PM 39.2 °F 32.5 °F 39.2 °F 100% 30.36 in 6.0 mi NNW 10.4 mph - N/A   Overcast
8:21 PM 39.2 °F 34.2 °F 39.2 °F 100% 30.36 in 10.0 mi NW 6.9 mph - N/A   Overcast
8:53 PM 41.0 °F 35.2 °F 41.0 °F 100% 30.36 in 10.0 mi NNW 9.2 mph - N/A   Overcast
9:53 PM 41.0 °F 35.2 °F 39.9 °F 96% 30.37 in 9.0 mi NNW 9.2 mph - N/A   Overcast
10:53 PM 41.0 °F 36.4 °F 39.9 °F 96% 30.36 in 8.0 mi NNW 6.9 mph - 0.00 in   Overcast
11:31 PM 39.2 °F 34.2 °F 39.2 °F 100% 30.36 in 4.0 mi NW 6.9 mph - 0.00 in Rain Light Rain
11:53 PM 39.9 °F 35.8 °F 39.9 °F 100% 30.36 in 7.0 mi NNW 5.8 mph - 0.00 in   Overcast